DW2629 Weather Reports


Display with metric or nautical units.
time (UTC)temp
F
wind
direction
speed
MPH
gust
MPH
rain 1hr
in
rain 24hr
in
rain mn
in
humidity
%
barometer
mb
20260506231538 59 206 0.0 8.0 0.00 0.00 0.00 76 1019.6
20260506230039 59 240 1.0 8.0 0.00 0.00 0.00 77 1019.7
20260506224537 60 213 2.0 7.0 0.00 0.00 0.00 78 1019.7
20260506223032 60 180 1.0 7.0 0.00 0.00 0.00 78 1019.6
20260506221531 59 227 0.0 4.0 0.00 0.00 0.00 79 1019.8
20260506220037 59 227 1.0 5.0 0.00 0.00 0.00 80 1019.9
20260506214536 59 228 2.0 6.0 0.00 0.00 0.00 79 1019.9
20260506213030 59 205 0.0 11.0 0.00 0.00 0.00 79 1020.0
20260506211534 60 250 2.0 9.0 0.00 0.00 0.00 78 1020.0
20260506210032 61 210 4.0 8.0 0.00 0.00 0.00 77 1019.8
20260506204533 61 223 1.0 10.0 0.00 0.00 0.00 77 1019.8
20260506203024 60 240 4.0 8.0 0.00 0.00 0.00 79 1019.8
20260506201529 59 129 2.0 8.0 0.00 0.00 0.00 81 1019.9
20260506200018 58 140 1.0 7.0 0.00 0.00 0.00 81 1019.8
20260506194517 58 148 0.0 5.0 0.00 0.00 0.00 85 1019.6
20260506193017 57 157 0.0 5.0 0.00 0.00 0.00 85 1019.6
20260506191513 57 209 1.0 6.0 0.00 0.00 0.00 86 1019.5
20260506190017 57 213 2.0 7.0 0.00 0.00 0.00 85 1019.4
20260506184519 57 217 0.0 7.0 0.00 0.00 0.00 85 1019.5
20260506183010 57 173 0.0 3.0 0.00 0.00 0.00 88 1019.4
20260506181509 57 173 0.0 3.0 0.00 0.00 0.00 89 1019.4
20260506180007 56 169 0.0 3.0 0.00 0.00 0.00 90 1019.5
20260506174507 56 169 1.0 5.0 0.00 0.00 0.00 90 1019.1
20260506173003 56 167 1.0 5.0 0.00 0.00 0.00 90 1019.1
20260506171502 56 169 0.0 3.0 0.00 0.00 0.00 90 1019.3
20260506170001 56 167 0.0 4.0 0.00 0.00 0.00 90 1019.2
20260506164600 56 167 0.0 0.0 0.00 0.00 0.00 91 1019.2
20260506163107 55 167 0.0 0.0 0.00 0.00 0.00 92 1019.1
20260506161556 55 167 0.0 0.0 0.00 0.00 0.00 92 1018.9
20260506160107 55 172 0.0 5.0 0.00 0.00 0.00 93 1018.8
20260506154552 54 161 0.0 6.0 0.00 0.00 0.00 94 1018.5
20260506153050 54 161 0.0 3.0 0.00 0.00 0.00 95 1018.7
20260506151550 54 161 0.0 1.0 0.00 0.00 0.00 95 1018.9
20260506150053 54 161 0.0 2.0 0.00 0.00 0.00 95 1018.8
20260506144558 53 161 0.0 2.0 0.00 0.00 0.00 95 1018.5
20260506143045 53 161 0.0 1.0 0.00 0.00 0.00 96 1018.6
20260506141544 53 161 0.0 1.0 0.00 0.00 0.00 96 1018.5
20260506140043 53 161 0.0 0.0 0.00 0.00 0.00 96 1018.5
20260506134541 53 161 0.0 0.0 0.00 0.00 0.00 96 1018.5
20260506133040 53 161 0.0 0.0 0.00 0.00 0.00 96 1018.4
20260506131546 53 161 0.0 0.0 0.00 0.00 0.00 96 1018.3
20260506130037 53 161 0.0 0.0 0.00 0.00 0.00 96 1018.0
20260506124536 52 161 0.0 0.0 0.00 0.00 0.00 96 1017.9
20260506123035 53 161 0.0 0.0 0.00 0.00 0.00 97 1017.9
20260506121534 53 161 0.0 0.0 0.00 0.00 0.00 97 1017.8
20260506120032 53 161 0.0 0.0 0.00 0.00 0.00 97 1017.7
20260506114538 52 161 0.0 0.0 0.00 0.00 0.00 97 1017.6
20260506113031 52 161 0.0 0.0 0.00 0.00 0.00 98 1017.6
20260506111527 52 161 0.0 0.0 0.00 0.00 0.00 98 1017.4
20260506110029 52 161 0.0 0.0 0.00 0.00 0.00 98 1017.2
20260506104524 52 161 0.0 0.0 0.00 0.00 0.00 98 1017.1
20260506103022 51 161 0.0 0.0 0.00 0.00 0.00 98 1017.0
20260506101521 51 161 0.0 0.0 0.00 0.00 0.00 98 1016.9
20260506100024 51 161 0.0 0.0 0.00 0.00 0.00 98 1016.9
20260506094519 50 161 0.0 0.0 0.00 0.00 0.00 98 1016.7
20260506093019 49 161 0.0 0.0 0.00 0.00 0.00 98 1016.7
20260506091520 49 161 0.0 0.0 0.00 0.00 0.00 96 1016.8
20260506090016 49 161 0.0 0.0 0.00 0.00 0.00 96 1016.6
20260506084511 49 161 0.0 0.0 0.00 0.00 0.00 95 1016.4
20260506083009 50 161 0.0 0.0 0.00 0.00 0.00 95 1016.3
20260506081509 50 161 0.0 0.0 0.00 0.00 0.00 95 1016.2
20260506073003 51 161 0.0 0.0 0.00 0.00 0.00 95 1015.8
20260506071501 51 161 0.0 0.0 0.00 0.00 0.00 94 1015.7
20260506061557 52 161 0.0 0.0 0.00 0.00 0.00 94 1015.3
20260506044554 55 161 0.0 0.0 0.00 0.00 0.00 89 1014.7
20260506043054 56 161 0.0 0.0 0.00 0.00 0.00 87 1014.6
20260506041557 57 161 0.0 0.0 0.00 0.00 0.00 85 1014.3
20260506040105 58 161 0.0 0.0 0.00 0.00 0.00 83 1014.4
20260506034552 60 161 0.0 0.0 0.00 0.00 0.00 82 1014.4
20260506033051 61 161 0.0 0.0 0.00 0.00 0.00 81 1014.2
20260506031551 62 161 0.0 0.0 0.00 0.00 0.00 78 1014.0
20260506030100 63 161 0.0 0.0 0.00 0.00 0.00 76 1013.9
20260506024556 64 161 0.0 1.0 0.00 0.00 0.00 75 1014.0
20260506023050 64 161 0.0 1.0 0.00 0.00 0.00 74 1013.9
20260506021558 64 161 0.0 3.0 0.00 0.00 0.00 73 1013.9
20260506020049 65 161 0.0 5.0 0.00 0.00 0.00 72 1013.9
20260506014557 66 161 0.0 4.0 0.00 0.00 0.00 69 1013.7
20260506013049 68 161 0.0 2.0 0.00 0.00 0.00 68 1013.8
20260506011545 68 161 0.0 5.0 0.00 0.00 0.00 67 1013.9
20260506010050 67 160 0.0 3.0 0.00 0.00 0.00 70 1014.1
20260506004548 67 160 1.0 5.0 0.00 0.00 0.00 70 1014.1
20260506003042 68 167 2.0 4.0 0.00 0.00 0.00 68 1014.1
20260506001537 67 167 0.0 5.0 0.00 0.00 0.00 71 1014.2
20260506000033 65 96 0.0 4.0 0.00 0.00 0.00 74 1014.2
20260505234533 64 86 0.0 4.0 0.00 0.00 0.00 74 1014.5
20260505233029 63 85 0.0 3.0 0.00 0.00 0.00 78 1014.7